Retour au catalogue

DELTA 2 R/B

ActifPO
NORAD 25637·ROCKET BODY·🇺🇸 United States

Lancé Feb 23, 1999 depuis Vandenberg Space Force Base

Loading…

Prochains Passages (prochaines 24 heures)

TLE

FraisSource: Space-Track

Époque: Sep 14, 2026, 02:27 UTC

1 25637U 99008D   26257.10257245  .00000234  00000-0  62211-4 0  9992
2 25637  96.4664 132.8228 0135977 327.1024 198.1123 14.49331581453632

Suivez DELTA 2 R/B en temps réel avec AllMySat

Download on the App Store